#timestamp,LO_Frequency,Hit,StdDev 
1518850815.7,286047000.7,N
1518850835.5,286047000.7,N
1518850855.4,286047000.5,N
1518850875.2,286046998.2,N
1518850895.0,286047001.2,N
1518850895.9,286047001.2,N
1518850915.8,286046998.6,N
1518850935.6,286046998.6,N
1518850955.5,286047000.9,N
1518850975.3,286047000.7,N
1518850995.1,286047002.3,N
1518851015.9,286046999.7,N
1518851035.7,286047001.9,N
1518851055.6,286046999.8,N
1518851075.4,286047002.1,N
1518851095.2,286047002.1,N
1518851115.1,286047002.0,N
1518851116.0,286047002.0,N
1518851135.8,286046999.9,N
1518851155.7,286047002.7,N
1518851175.5,286047002.1,N
1518851195.3,286047001.8,N
1518851215.2,286047001.5,N
1518851235.0,286047002.6,N
1518851235.9,286047002.6,N
1518851255.8,286047002.1,N
1518851275.6,286046999.7,N
1518851295.4,286047002.3,N
1518851315.3,286047002.6,N
1518851335.1,286047002.8,N
1518851355.9,286046999.8,N
1518851375.7,286047000.4,N
1518851395.5,286047001.0,N
1518851415.4,286046999.7,N
1518851435.2,286046999.9,N
1518851455.0,286046998.6,N
1518851456.0,286046998.6,N
1518851475.8,286046998.8,N
1518851495.6,286046998.7,N
1518851515.5,286046999.3,N
1518851535.3,286046999.0,N
1518851555.2,286046999.0,N
1518851575.9,286046999.2,N
1518851595.7,286046999.1,N
1518851615.6,286046997.0,N
1518851635.4,286046996.7,N
1518851655.2,286046997.5,N
1518851675.1,286046997.9,N
1518851676.0,286046997.9,N
1518851695.8,286046995.6,N
1518851715.7,286046993.5,Y
1518851735.5,286046993.3,P
1518851755.3,286046996.0,N
1518851775.2,286046995.9,N
1518851795.0,286046993.3,N
1518851795.9,286046993.3,N
1518851815.8,286046995.8,N
1518851835.6,286046995.5,N
1518851855.4,286046996.2,N
1518851875.3,286046995.8,N
1518851895.1,286046995.6,N
1518851915.8,286046996.4,N
1518851935.7,286046993.7,Y
1518851955.5,286047000.7,P
1518851975.4,286047001.1,N
1518851995.2,286047001.2,N
1518852015.0,286047000.8,N
1518852015.9,286047000.8,N
1518852035.8,286047001.2,N
1518852055.6,286047000.8,N
1518852075.5,286046999.0,N
1518852095.3,286046998.5,N
1518852115.1,286046998.7,N
1518852135.9,286046999.5,N
1518852155.7,286046998.1,N
1518852175.6,286046998.7,N
1518852195.4,286046996.7,N
1518852215.2,286046999.3,N
1518852235.1,286047001.2,N
1518852236.0,286047001.2,N
1518852255.8,286047000.6,N
1518852275.7,286046999.3,N
1518852295.5,286046999.2,N
1518852315.3,286046997.3,N
1518852335.2,286046997.8,N
1518852355.0,286046997.3,N
1518852355.9,286046997.3,N
1518852375.7,286046999.0,N
1518852395.6,286046999.6,N
1518852415.4,286046999.5,N
1518852435.3,286046999.6,N
1518852455.1,286046997.1,N
1518852456.0,286046997.1,N
1518852475.8,286046996.9,N
1518852495.7,286046996.9,N
1518852515.5,286046997.5,N
1518852535.3,286046997.8,N
1518852555.2,286046997.5,N
1518852575.0,286046997.5,N
1518852575.9,286046997.5,N
1518852595.8,286046999.1,N
1518852615.6,286046996.5,N
1518852635.4,286046996.9,N
1518852655.6,286046999.1,N
1518852675.5,286046999.4,N
1518852695.3,286046996.6,N
1518852715.1,286046997.1,N
1518852735.9,286046995.2,Y
1518852755.7,286046997.8,P
1518852775.5,286046995.3,P
1518852795.4,286046995.8,P
1518852815.2,286046995.3,Y
1518852835.1,286046998.3,P
1518852836.0,286046998.3,N
1518852855.8,286047000.4,N
1518852875.6,286046999.9,N
1518852895.5,286047000.2,N
1518852915.3,286047000.6,N
1518852935.1,286047000.7,N
1518852955.9,286046998.5,N
1518852975.7,286046999.5,N
1518852995.6,286046999.0,N
1518853015.4,286046999.1,N
1518853035.2,286046999.0,N
1518853055.1,286047000.4,N
1518853056.0,286047000.4,N
1518853075.8,286046998.5,N
1518853095.6,286046998.5,N
1518853115.5,286046998.3,N
1518853135.3,286046998.1,N
1518853155.2,286047001.1,N
1518853175.9,286046998.7,N
1518853195.7,286046999.6,N
1518853215.6,286046999.3,N
1518853235.4,286046998.7,N
1518853255.2,286046998.4,N
1518853275.1,286047000.8,N
1518853276.0,286047000.8,N
1518853295.8,286047000.5,N
1518853315.7,286047000.7,N
1518853335.5,286046999.4,N
1518853355.3,286046998.2,N
1518853375.2,286046998.1,N
1518853395.0,286046998.9,N
1518853395.9,286046998.9,N
1518853415.8,286046999.0,N
1518853435.6,286046998.6,N
1518853455.4,286046998.4,N
1518853475.3,286047000.8,N
1518853495.1,286047000.6,N
1518853515.9,286047000.6,N
1518853535.7,286046998.1,N
1518853555.5,286046999.4,N
1518853605.4,286047001.0,E
1518853615.3,286046998.3,N
1518853635.1,286046996.9,P
1518853655.9,286046997.2,P
1518853675.7,286046996.9,Y
1518853695.6,286047002.5,P
1518853715.4,286047002.8,N
1518853735.2,286046999.7,N
1518853755.1,286046999.7,N
1518853756.0,286046999.7,N
1518853775.8,286047002.5,N
1518853795.6,286047003.9,N
1518853815.5,286047001.4,N
1518853835.3,286047001.3,N
1518853855.2,286047004.1,N
1518853875.9,286047001.4,N
1518853895.7,286047004.4,N
1518853915.6,286047004.0,N
1518853935.4,286047004.4,N
1518853955.3,286047001.3,N
1518853975.1,286047001.7,N
1518853976.0,286047001.7,N
1518853995.8,286047001.3,N
1518854015.7,286047001.5,N
1518854035.5,286047002.8,N
1518854055.3,286047002.0,N
1518854075.2,286047002.0,N
1518854095.0,286047002.5,N
1518854095.9,286047002.5,N
1518854115.8,286047002.4,N
1518854135.6,286047002.2,N
1518854155.4,286047001.9,N
1518854175.3,286047002.2,N
1518854195.1,286047002.5,N
1518854215.8,286047002.1,N
1518854235.7,286047002.6,N
1518854255.5,286047002.1,N
1518854275.4,286047001.9,N
1518854295.2,286047004.4,Y
1518854315.0,286046999.8,P
1518854315.9,286046999.8,N
1518854335.8,286047002.2,N
1518854355.6,286047002.5,N
1518854375.5,286047000.6,N
1518854395.3,286046999.9,N
